[[{"header":{"parameterUnit":"m.s-1","parameterCategory":1,"la1":30.2991,"la2":30.254,"lo1":-89.0895,"lo2":-89.0444,"dy":0.0017,"dx":0.0017,"nx":28,"ny":28,"refTime":"2024-09-25T09:00:00:Z","depth":0,"parameterNumber":2,"parameterNumberName":"U-component_of_WINDS"},"data":[0,0,0,0,0,0,0,0,0,0,0,0,0,0,0,0,0,0,0,0,0,0,0,0,0,0,0,0,0,0,0,0,0,0,0,0,0,0,0,0,0,0,0,0,0,0,0,0,0,0,0,0,0,0,0,0,0,0,-1.9872,-1.9873,0,-1.9999,-2.0001,-2.0002,-1.9961,-1.9958,-1.9955,-1.9952,-2.0089,-2.0095,-2.0101,0,0,0,0,0,0,0,0,0,0,0,0,0,-1.9598,-1.9604,-1.9872,-1.9874,-1.9875,-1.9999,-2.0001,-2.0003,-1.9961,-1.9958,-1.9954,-1.9951,-2.0087,-2.0094,-2.0102,0,0,0,0,0,0,0,0,0,0,0,0,0,-1.9721,-1.9605,-1.9872,-1.9869,-1.987,-1.9999,-2.0001,-2.0003,-1.9962,-1.9958,-1.9953,-1.995,-2.0085,-2.0094,-2.0103,-2.0243,0,0,-2.0131,-2.0135,0,0,0,0,0,0,0,0,-1.9714,-1.9731,-1.9868,-1.987,-1.9871,-1.996,-1.9954,-2.0084,-1.9963,-1.9927,-1.9952,-1.9948,-2.005,-2.0062,-2.0095,-2.025,-2.0256,-2.0132,-2.0138,-2.0142,-2.0145,0,0,0,0,0,0,0,-1.9706,-1.9725,-1.9922,-1.987,-1.9872,-1.9864,-1.9876,-1.9979,-2.0011,-1.993,-1.9927,-1.9943,-2.005,-2.0086,-2.0098,-2.0258,-2.0132,-2.014,-2.0146,-2.015,-2.0536,-2.054,0,0,0,0,0,0,-1.9695,-1.9718,-1.9918,-1.9926,-1.978,-1.9872,-1.9886,-1.9936,-2.0009,-2.0016,-1.9946,-1.994,-2.0072,-2.0087,-2.0103,-2.0273,-2.0142,-2.0151,-2.0156,-2.0531,-2.0537,-2.0542,0,0,0,0,0,0,-1.969,-1.9714,-1.9913,-1.9822,-1.9846,-1.9881,-1.9937,-1.994,-1.9976,-2.0021,-2.0027,-1.9977,-2.007,-2.0089,-2.0209,-2.0277,-2.0155,-2.0163,-2.0525,-2.0533,-2.0539,-2.0615,0,0,0,0,0,0,-1.9682,-1.9712,-1.9764,-1.9823,-1.9851,-2.0016,-1.9941,-1.9946,-1.9992,-1.9985,-2.0052,-2.0059,-2.0068,-2.0195,-2.0218,-2.0288,-2.0171,-2.0519,-2.0529,-2.0537,-2.0607,-2.0624,-2.0638,0,0,0,0,0,-1.9672,-1.9782,-1.9767,-1.9792,-1.9918,-2.002,-2.0036,-2.0043,-1.9997,-2.0052,-2.008,-2.0057,-2.0265,-2.0207,-2.0233,-2.0307,-2.0515,-2.0526,-2.0536,-2.0599,-2.062,-2.0638,0,0,0,0,0,0,-1.9733,-1.9789,-1.9774,-1.9905,-1.9958,-2.0012,-2.0081,-2.0064,-2.0133,-2.0124,-2.0131,-2.0146,-2.0269,-2.0299,-2.0234,-2.0447,-2.0384,-2.04,-2.0423,-2.0444,-2.0459,-2.0451,-2.0178,0,0,0,0,0,-1.976,-1.9837,-1.9883,-1.9995,-2.0022,-2.0047,-2.0092,-2.0092,-2.0147,-2.017,-2.0207,-2.0264,-2.0342,-2.0394,-2.0469,-2.061,-2.0625,-2.0673,-2.0689,-2.0702,-2.0717,-2.0795,-2.0818,-2.0576,-2.0576,-2.0576,0,0,-1.9821,-1.9861,-1.9909,-2.0008,-2.0049,-2.013,-2.0066,-2.0154,-2.0215,-2.0184,-2.0299,-2.0328,-2.0392,-2.0523,-2.0582,-2.0552,-2.0786,-2.0715,-2.0725,-2.0733,-2.0808,-2.0831,-2.0852,-2.0583,-2.0582,-2.0581,0,0,-1.9971,-2.0009,-2.0106,-2.0148,-2.0209,-2.0225,-2.0248,-2.0306,-2.0323,-2.0438,-2.0417,-2.049,-2.0624,-2.0671,-2.0712,-2.0879,-2.0861,-2.0903,-2.0988,-2.1064,-2.1083,-2.11,-2.1162,-2.1184,-2.0917,-2.0917,-2.0918,0,-2.0039,-2.0158,-2.0159,-2.0249,-2.0294,-2.0266,-2.0367,-2.0407,-2.0491,-2.0524,-2.0488,-2.0656,-2.0697,-2.0839,-2.088,-2.0913,-2.0942,-2.0897,-2.108,-2.1097,-2.1113,-2.1172,-2.1195,-2.0922,-2.0922,-2.0921,-2.0921,0,-2.0239,-2.0322,-2.0394,-2.0473,-2.0526,-2.0621,-2.0637,-2.0691,-2.0686,-2.0706,-2.0824,-2.0871,-2.0956,-2.0989,-2.0986,-2.1131,-2.1111,-2.1077,-2.1014,-2.1141,-2.1197,-2.1219,-2.0929,-2.0928,-2.0926,-2.0925,0,0,-2.0434,-2.0511,-2.0538,-2.0574,-2.0639,-2.0705,-2.0798,-2.0878,-2.0925,-2.0983,-2.1064,-2.1178,-2.1147,-2.1194,-2.1195,-2.1262,-2.1394,-2.1221,-2.1222,-2.1254,-2.156,-2.1587,-2.1613,-2.1381,-2.1385,-2.1389,-2.1556,0,-2.0592,-2.0755,-2.0758,-2.0909,-2.0987,-2.0961,-2.1043,-2.1093,-2.1114,-2.1185,-2.1209,-2.129,-2.1242,-2.1271,-2.1335,-2.1364,-2.1456,-2.1352,-2.1459,-2.1463,-2.1447,-2.1642,-2.167,-2.1826,-2.1577,-2.1581,-2.1584,0,-2.0799,-2.0862,-2.102,-2.1074,-2.1107,-2.1181,-2.1255,-2.1321,-2.1378,-2.1389,-2.144,-2.1432,-2.153,-2.1461,-2.1597,-2.1526,-2.157,-2.1591,-2.1597,-2.161,-2.1533,-2.1663,-2.1875,-2.19,-2.1618,-2.1615,-2.1612,0,-2.0929,-2.1053,-2.1164,-2.1195,-2.126,-2.1313,-2.1343,-2.1395,-2.1443,-2.1508,-2.154,-2.1616,-2.1658,-2.1718,-2.1731,-2.168,-2.1869,-2.1801,-2.1883,-2.1883,-2.1927,-2.1924,-2.2152,-2.195,-2.195,-2.1949,-2.1949,0,-2.1107,-2.1205,-2.1223,-2.1291,-2.1401,-2.1404,-2.1513,-2.1539,-2.1585,-2.166,-2.1642,-2.1713,-2.1725,-2.1799,-2.1809,-2.1922,-2.1941,-2.1954,-2.1957,-2.1958,-2.1956,-2.1989,-2.1979,-2.1955,-2.1954,-2.1953,-2.1952,0,-2.1272,-2.1287,-2.1406,-2.1457,-2.1472,-2.1552,-2.1596,-2.1663,-2.1681,-2.1776,-2.1798,-2.1828,-2.1914,-2.1931,-2.2034,-2.2041,-2.2176,-2.2166,-2.2157,-2.2157,-2.2239,-2.2232,-2.2498,-2.2534,-2.2306,-2.2308,-2.231,0,-2.1386,-2.1461,-2.1519,-2.1567,-2.1599,-2.1676,-2.1724,-2.1729,-2.1781,-2.1851,-2.191,-2.1993,-2.2061,-2.22,-2.2232,-2.2311,-2.2305,-2.2392,-2.2317,-2.2316,-2.2309,-2.2306,-2.2314,-2.2408,-2.241,-2.2412,-2.2414,0,-2.1588,-2.1591,-2.166,-2.1733,-2.179,-2.1848,-2.1903,-2.1943,-2.1956,-2.2015,-2.2102,-2.2154,-2.2258,-2.2342,-2.2421,-2.2454,-2.2438,-2.2437,-2.2461,-2.2464,-2.2456,-2.2464,-2.2199,-2.2432,-2.243,-2.2429,-2.2428,-2.2427,-2.1733,-2.1798,-2.1849,-2.1927,-2.1968,-2.202,-2.2085,-2.211,-2.2182,-2.2266,-2.2264,-2.236,-2.2415,-2.2519,-2.2556,-2.2633,-2.2606,-2.2639,-2.2648,-2.2657,-2.2666,-2.2441,-2.2647,-2.2646,-2.2646,-2.2645,-2.2645,0,-2.1936,-2.1967,-2.2038,-2.2114,-2.2176,-2.2151,-2.2211,-2.2265,-2.2349,-2.24,-2.2466,-2.2567,-2.2648,-2.2685,-2.2766,-2.282,-2.2815,-2.2842,-2.284,-2.2848,-2.2685,-2.2657,-2.2845,-2.2845,-2.2845,-2.2845,-2.2845,-2.2845,-2.2049,-2.2159,-2.2168,-2.2299,-2.233,-2.2422,-2.2458,-2.2506,-2.2547,-2.266,-2.2726,-2.2749,-2.2796,-2.288,-2.2954,-2.2963,-2.2995,-2.3026,-2.3032,-2.2879,-2.2859,-2.284,-2.2814,-2.3032,-2.3032,-2.3189,-2.3191,-2.3192]},{"header":{"parameterUnit":"m.s-1","parameterCategory":1,"la1":30.2991,"la2":30.254,"lo1":-89.0895,"lo2":-89.0444,"dy":0.0017,"dx":0.0017,"nx":28,"ny":28,"refTime":"2024-09-25T09:00:00:Z","depth":0,"parameterNumber":3,"parameterNumberName":"V-component_of_WINDS"},"data":[0,0,0,0,0,0,0,0,0,0,0,0,0,0,0,0,0,0,0,0,0,0,0,0,0,0,0,0,0,0,0,0,0,0,0,0,0,0,0,0,0,0,0,0,0,0,0,0,0,0,0,0,0,0,0,0,0,0,-5.6203,-5.6203,0,-5.6197,-5.6197,-5.6197,-5.6108,-5.6105,-5.6103,-5.6101,-5.6095,-5.6097,-5.6099,0,0,0,0,0,0,0,0,0,0,0,0,0,-5.6136,-5.6138,-5.6203,-5.6203,-5.6203,-5.6197,-5.6197,-5.6197,-5.6108,-5.6105,-5.6102,-5.61,-5.6094,-5.6096,-5.6099,0,0,0,0,0,0,0,0,0,0,0,0,0,-5.6151,-5.6138,-5.6203,-5.6158,-5.6154,-5.6197,-5.6197,-5.6197,-5.6109,-5.6105,-5.6102,-5.6099,-5.6093,-5.6096,-5.6099,-5.6185,0,0,-5.6108,-5.6109,0,0,0,0,0,0,0,0,-5.615,-5.6154,-5.6165,-5.6161,-5.6156,-5.6149,-5.6171,-5.6193,-5.6109,-5.6126,-5.6101,-5.6097,-5.6116,-5.6117,-5.6123,-5.6185,-5.6185,-5.6108,-5.611,-5.6111,-5.6112,0,0,0,0,0,0,0,-5.6149,-5.6153,-5.62,-5.6165,-5.616,-5.6137,-5.6136,-5.6175,-5.614,-5.6124,-5.6118,-5.6118,-5.6113,-5.612,-5.6122,-5.6184,-5.6108,-5.6111,-5.6113,-5.6114,-5.6313,-5.6317,0,0,0,0,0,0,-5.6155,-5.6153,-5.6201,-5.62,-5.6145,-5.6141,-5.6139,-5.6155,-5.6139,-5.6133,-5.6121,-5.6114,-5.6117,-5.6119,-5.6122,-5.6219,-5.6111,-5.6114,-5.6116,-5.631,-5.6314,-5.6318,0,0,0,0,0,0,-5.6154,-5.616,-5.6201,-5.6175,-5.6178,-5.6146,-5.6164,-5.6157,-5.6164,-5.6137,-5.613,-5.6135,-5.6114,-5.6117,-5.6169,-5.6218,-5.6115,-5.6118,-5.6306,-5.6311,-5.6316,-5.6416,0,0,0,0,0,0,-5.6152,-5.616,-5.6193,-5.6176,-5.618,-5.625,-5.6167,-5.6159,-5.6169,-5.616,-5.6148,-5.6143,-5.6112,-5.6165,-5.6172,-5.622,-5.612,-5.6301,-5.6308,-5.6314,-5.6408,-5.6424,-5.6438,0,0,0,0,0,-5.615,-5.6222,-5.6195,-5.6201,-5.6221,-5.6253,-5.6255,-5.6217,-5.6174,-5.6206,-5.6188,-5.6143,-5.6212,-5.6171,-5.6178,-5.6228,-5.6298,-5.6306,-5.6314,-5.6402,-5.6421,-5.6438,0,0,0,0,0,0,-5.6246,-5.6219,-5.6189,-5.6258,-5.6258,-5.6238,-5.6277,-5.624,-5.6252,-5.6243,-5.6196,-5.6194,-5.6253,-5.6246,-5.6201,-5.6308,-5.6247,-5.6257,-5.6311,-5.6329,-5.6344,-5.6344,-5.6123,0,0,0,0,0,-5.6275,-5.6304,-5.6279,-5.6342,-5.6343,-5.6311,-5.6323,-5.6294,-5.6292,-5.6292,-5.6278,-5.6278,-5.6299,-5.6314,-5.6332,-5.6407,-5.6402,-5.6444,-5.6459,-5.6471,-5.648,-5.6516,-5.6534,-5.6344,-5.6344,-5.6344,0,0,-5.6336,-5.6325,-5.6346,-5.6361,-5.6357,-5.6387,-5.6311,-5.6346,-5.6367,-5.6297,-5.6345,-5.6335,-5.6331,-5.6394,-5.6422,-5.639,-5.6531,-5.6481,-5.6491,-5.6493,-5.6526,-5.6544,-5.656,-5.635,-5.6349,-5.6348,0,0,-5.6461,-5.6457,-5.6507,-5.6505,-5.65,-5.6478,-5.649,-5.6475,-5.6465,-5.6511,-5.6459,-5.6483,-5.6521,-5.652,-5.6524,-5.6647,-5.6605,-5.6654,-5.6731,-5.6767,-5.6782,-5.6795,-5.6836,-5.6852,-5.6663,-5.6663,-5.6663,0,-5.6538,-5.658,-5.6538,-5.6576,-5.6583,-5.652,-5.657,-5.657,-5.6572,-5.6578,-5.6543,-5.6587,-5.6581,-5.6642,-5.6671,-5.6678,-5.6689,-5.6655,-5.6783,-5.6796,-5.6807,-5.6846,-5.6862,-5.6669,-5.6668,-5.6668,-5.6667,0,-5.6672,-5.6703,-5.6744,-5.6746,-5.6758,-5.6802,-5.6766,-5.6783,-5.6752,-5.6733,-5.678,-5.677,-5.6784,-5.6796,-5.6768,-5.6853,-5.6833,-5.6791,-5.6728,-5.6832,-5.6868,-5.6882,-5.6677,-5.6675,-5.6673,-5.6672,0,0,-5.6859,-5.6836,-5.6852,-5.685,-5.684,-5.6862,-5.6902,-5.6915,-5.6929,-5.6932,-5.6964,-5.6996,-5.6957,-5.6962,-5.6932,-5.6964,-5.7059,-5.6918,-5.6917,-5.6943,-5.715,-5.718,-5.7198,-5.7032,-5.7035,-5.7037,-5.7149,0,-5.6978,-5.7045,-5.7008,-5.708,-5.7106,-5.7045,-5.708,-5.7077,-5.7059,-5.7078,-5.7059,-5.7082,-5.7029,-5.7031,-5.7061,-5.7042,-5.71,-5.7033,-5.706,-5.7061,-5.7061,-5.7217,-5.725,-5.7357,-5.7163,-5.7166,-5.7167,0,-5.7127,-5.7134,-5.7209,-5.719,-5.72,-5.7232,-5.7238,-5.7258,-5.7252,-5.7237,-5.7242,-5.7204,-5.7241,-5.7179,-5.7229,-5.7184,-5.7193,-5.7185,-5.7188,-5.7188,-5.712,-5.722,-5.739,-5.7406,-5.719,-5.7188,-5.7186,0,-5.7253,-5.7282,-5.7329,-5.7331,-5.7311,-5.7334,-5.7327,-5.7318,-5.7327,-5.7334,-5.7339,-5.735,-5.7356,-5.7365,-5.733,-5.7289,-5.7384,-5.732,-5.7371,-5.7372,-5.7393,-5.7392,-5.7566,-5.7402,-5.7402,-5.7401,-5.7401,0,-5.7389,-5.7437,-5.7385,-5.7414,-5.7465,-5.7421,-5.7472,-5.7458,-5.745,-5.7475,-5.7424,-5.7448,-5.7402,-5.7421,-5.7395,-5.7438,-5.7442,-5.743,-5.7422,-5.7434,-5.7435,-5.7438,-5.7429,-5.7405,-5.7404,-5.7404,-5.7403,0,-5.7539,-5.7507,-5.7554,-5.753,-5.7525,-5.7564,-5.7543,-5.7569,-5.7547,-5.7579,-5.7584,-5.755,-5.757,-5.7536,-5.7553,-5.7535,-5.7595,-5.7577,-5.7597,-5.7591,-5.7644,-5.7639,-5.7824,-5.7845,-5.767,-5.7671,-5.7673,0,-5.7627,-5.7662,-5.7641,-5.7654,-5.7649,-5.767,-5.7678,-5.7636,-5.7647,-5.7641,-5.7667,-5.7682,-5.7692,-5.7727,-5.7704,-5.7716,-5.7696,-5.776,-5.7697,-5.7707,-5.7695,-5.7692,-5.7695,-5.7773,-5.7775,-5.7776,-5.7778,0,-5.7787,-5.7769,-5.7782,-5.779,-5.7801,-5.7805,-5.7806,-5.7819,-5.7774,-5.7788,-5.7807,-5.7815,-5.783,-5.7846,-5.7851,-5.7843,-5.7803,-5.7798,-5.781,-5.7822,-5.7831,-5.7825,-5.763,-5.7794,-5.7792,-5.7791,-5.779,-5.7789,-5.7908,-5.7934,-5.7923,-5.7939,-5.7935,-5.7936,-5.7958,-5.7938,-5.7953,-5.7961,-5.7935,-5.796,-5.7951,-5.7954,-5.7951,-5.7969,-5.7941,-5.7959,-5.7963,-5.7968,-5.7976,-5.7829,-5.797,-5.797,-5.7969,-5.7969,-5.7969,0,-5.8063,-5.8052,-5.8067,-5.8068,-5.8081,-5.8041,-5.8039,-5.8052,-5.8074,-5.8069,-5.8079,-5.8099,-5.8114,-5.8091,-5.8101,-5.812,-5.8102,-5.8124,-5.8122,-5.812,-5.8001,-5.7989,-5.8139,-5.8139,-5.8139,-5.8139,-5.8139,-5.8139,-5.8145,-5.8187,-5.8167,-5.8206,-5.8195,-5.8217,-5.8219,-5.822,-5.8215,-5.824,-5.8251,-5.8236,-5.8223,-5.8232,-5.8243,-5.8235,-5.8241,-5.827,-5.8256,-5.8145,-5.8129,-5.8113,-5.8101,-5.8272,-5.8272,-5.8373,-5.8374,-5.8374]}]]